Voltar ao catálogo

COSMOS 2251 DEB

AtivoLEO
NORAD 33917·DEBRIS·🇷🇺 Russia

Lançado Jun 16, 1993 de Plesetsk Cosmodrome

Loading…

Próximas Passagens (próximas 24 horas)

TLE

AtualizadoSource: Space-Track

Época: Sep 14, 2026, 15:25 UTC

1 33917U 93036DW  26257.64249383  .00001060  00000-0  83179-3 0  9993
2 33917  74.1069  29.6983 0332628  65.3712 298.1669 13.70026081875118

Acompanhe COSMOS 2251 DEB em tempo real com AllMySat

Download on the App Store